Time,TemperatureF,DewpointF,PressureIn,WindDirection,WindDirectionDegrees,WindSpeedMPH,WindSpeedGustMPH,Humidity,HourlyPrecipIn,Conditions,Clouds,dailyrainin,SoftwareType,DateUTC
2013-04-27 00:00:00,58.0,-99.9,-100.00,SW,225,2.0,-999.0,-999,-99.99,,,-99.99,,2013-04-27 07:00:00,
2013-04-27 01:00:00,57.0,-99.9,-100.00,SW,218,2.0,-999.0,-999,-99.99,,,-99.99,,2013-04-27 08:00:00,
2013-04-27 02:00:00,57.0,-99.9,-100.00,South,173,5.0,-999.0,-999,-99.99,,,-99.99,,2013-04-27 09:00:00,
2013-04-27 03:00:00,57.0,-99.9,-100.00,South,178,5.0,-999.0,-999,-99.99,,,-99.99,,2013-04-27 10:00:00,
2013-04-27 04:00:00,57.0,-99.9,-100.00,South,175,3.0,-999.0,-999,-99.99,,,-99.99,,2013-04-27 11:00:00,
2013-04-27 05:00:00,57.0,-99.9,-100.00,South,176,5.0,-999.0,-999,-99.99,,,-99.99,,2013-04-27 12:00:00,
2013-04-27 06:00:00,56.0,-99.9,-100.00,SSW,207,2.0,-999.0,-999,-99.99,,,-99.99,,2013-04-27 13:00:00,
2013-04-27 07:00:00,56.0,-99.9,-100.00,South,176,6.0,-999.0,-999,-99.99,,,-99.99,,2013-04-27 14:00:00,
2013-04-27 09:00:00,56.0,-99.9,-100.00,SSW,193,12.0,-999.0,-999,-99.99,,,-99.99,,2013-04-27 16:00:00,
2013-04-27 10:00:00,55.0,-99.9,-100.00,SSW,194,10.0,-999.0,-999,-99.99,,,-99.99,,2013-04-27 17:00:00,
2013-04-27 11:00:00,54.0,-99.9,-100.00,SSW,194,13.0,-999.0,-999,-99.99,,,-99.99,,2013-04-27 18:00:00,
2013-04-27 12:00:00,55.0,-99.9,-100.00,SSW,202,12.0,-999.0,-999,-99.99,,,-99.99,,2013-04-27 19:00:00,
2013-04-27 13:00:00,55.0,-99.9,-100.00,South,179,10.0,-999.0,-999,-99.99,,,-99.99,,2013-04-27 20:00:00,
2013-04-27 14:00:00,56.0,-99.9,-100.00,South,187,9.0,-999.0,-999,-99.99,,,-99.99,,2013-04-27 21:00:00,
2013-04-27 15:00:00,58.0,-99.9,-100.00,South,172,12.0,-999.0,-999,-99.99,,,-99.99,,2013-04-27 22:00:00,
2013-04-27 16:00:00,58.0,-99.9,-100.00,South,177,12.0,-999.0,-999,-99.99,,,-99.99,,2013-04-27 23:00:00,
2013-04-27 17:00:00,57.0,-99.9,-100.00,South,185,13.0,-999.0,-999,-99.99,,,-99.99,,2013-04-28 00:00:00,
2013-04-27 18:00:00,57.0,-99.9,-100.00,South,185,10.0,-999.0,-999,-99.99,,,-99.99,,2013-04-28 01:00:00,
2013-04-27 19:00:00,57.0,-99.9,-100.00,South,191,9.0,-999.0,-999,-99.99,,,-99.99,,2013-04-28 02:00:00,
2013-04-27 20:00:00,56.0,-99.9,-100.00,SSW,198,9.0,-999.0,-999,-99.99,,,-99.99,,2013-04-28 03:00:00,
2013-04-27 21:00:00,55.0,-99.9,-100.00,SSW,208,7.0,-999.0,-999,-99.99,,,-99.99,,2013-04-28 04:00:00,
2013-04-27 22:00:00,54.0,-99.9,-100.00,SSW,197,6.0,-999.0,-999,-99.99,,,-99.99,,2013-04-28 05:00:00,
2013-04-27 23:00:00,54.0,-99.9,-100.00,SSW,203,7.0,-999.0,-999,-99.99,,,-99.99,,2013-04-28 06:00:00,